Location: Delmar
(42.6220°N, 73.8326°W)
Time: 04:53:31
(UTC+00:00)

Cosmos 44 - Pass Details

Date: 29 October 2020
Orbit: 577 x 784 km, 65.1° (Epoch: 27 November)

Event Time Altitude Azimuth Distance (km) Brightness Sun altitude
Rises 22:14:25 0° 222° (SW) 2,846 7.5 -4.9°
Reaches altitude 10° 22:16:38 10° 226° (SW) 1,971 6.7 -5.3°
Maximum altitude 22:21:02 60° 307° (NW) 738 3.7 -6.1°
Drops below altitude 10° 22:25:44 10° 27° (NNE) 2,107 5.4 -6.9°
Sets 22:28:11 0° 31° (NNE) 3,062 6.2 -7.4°
